Simultaneous Nadir Overpasses (SNOs) Predictions

Prediction of SNOs between TERRA and METOP-C Satellite Orbit:

Table of predicted SNOs for the next 14.0 days since TLE Epoch: 2/18/2023
Index Date (TERRA) Time (TERRA) Lat,Lon (TERRA) SZA (TERRA ) Date (METOP-C) Time (METOP-C) Lat,Lon (METOP-C) SZA (METOP-C ) Distance(km) Time Diff (sec)
1 02/19/2023 19:16:55 80.92, -74.19 93.35 02/19/2023 19:16:24 80.92, -74.14 93.35 0.93 31
2 02/19/2023 20:06:17 -80.95, 93.85 86.61 02/19/2023 20:07:04 -80.95, 93.86 86.59 0.37 47
3 02/22/2023 11:28:17 80.93, 43.07 92.42 02/22/2023 11:28:03 80.92, 42.96 92.39 2.29 14
4 02/22/2023 12:17:39 -80.97,-148.84 87.54 02/22/2023 12:18:43 -80.96,-148.99 87.54 2.78 64
5 02/25/2023 02:50:20 -80.84, -8.59 88.72 02/25/2023 02:49:06 -80.86, -8.60 88.74 1.88 74
6 02/25/2023 03:39:39 80.92, 160.02 91.41 02/25/2023 03:39:42 80.92, 159.95 91.41 1.25 3
7 02/27/2023 19:01:39 -80.89, 109.13 89.63 02/27/2023 19:00:43 -80.88, 109.05 89.65 1.36 56
8 02/27/2023 19:50:59 80.93, -82.64 90.45 02/27/2023 19:51:20 80.93, -82.79 90.44 2.58 21
9 03/02/2023 11:12:57 -80.91,-133.46 90.59 03/02/2023 11:12:19 -80.91,-133.39 90.60 1.21 38



Historial Predications of SNOs between TERRA and METOP-C
